SCP
0 0 0 0 0 0 0 0 0 0 0 0 0 0 0 0 0 0 0 0 0 0 0 0 0 0 0 0 0 0 0 0 0 0 0 0 0 0 0 0 0 0 0 0
0 0 0 0 0 0 0 0 0 0 0 0 0 0 0 0 0 0 0 0 0 0 0 0 0 0 0 0 0 0 0 0 0 0 0 0 0 0 0 0 0 0 0 0
0 -0 0 0 0 0 0 0 0 0 0 0 0 0 0 0 0 0 0 0 0 0 0 0 0 0 0 0 0 0 0 -0 -0 -0 0 0 0 0 0 0 0 0 0 0
0 0 0 0 0 0 0 0 0 0 0 0 0 0 0 0 0 0 0 0 0 0 0 0 0 0 0 0 0 0 0 0 -0 -0 0 0 0 0 0 0 0 0 -0 -0
0 0 0 0 0 0 0 0 0 0 0 0 0 0 0 0 0 0 0 0 0 0 0 0 0 0 0 0 0 0 0 0 -0 -0 -0 -0 -0 -0 -0 -0 0 0 0 -0
0 0 0 0 0 0 0 0 0 0 0 0 0 0 0 0 0 0 0 0 0 0 0 0 0 0 0 0 0 0 0 -0 -0 -0 -0 -0 -0 -0 -0 -0 -0 0 0 0
0 0 0 0 0 0 0 0 0 0 0 0 0 0 0 0 0 0 0 0 0 0 0 0 0 0 0 0 -0 -0 -0 -0 -0 -0 -0 -0 -0 -0 0 0 0 0 0 0
0 0 0 0 0 0 0 0 0 0 0 0 0 0 0 0 0 0 0 0 0 0 0 0 0 0 0 -0 -0 -0 -0 -0 -0 -0 0 0 0 0 0 0 0 0 0 0
0 0 0 0 0 0 0 0 0 0 0 0 0 0 0 0 0 0 0 0 0 0 0 0 -0 -0 -0 -0 0 -0 -0 -0 -0 0 0 0 0 0 0 0 0 0 0 0
0 0 0 0 0 0 0 0 0 0 0 0 0 0 0 0 0 0 0 0 0 -0 0 0 0 -0 -0 0 0 0 0 0 0 0 0 0 0 0 0 0 0 0 0 0
0 0 0 0 0 0 0 0 0 0 0 0 0 0 0 0 0 0 0 0 0 0 0 0 0 0 0 0 0 0 0 0 0 0 0 0 0 0 0 0 0 0 0 0
0 0 0 0 0 0 0 0 0 0 0 0 0 0 0 0 0 0 0 0 0 0 -0 0 0 0 0 0 0 0 0 0 0 0 0 0 0 0 0 0 0 0 0 0
0 0 0 0 0 0 0 0 0 0 0 0 0 0 0 0 0 0 0 -0 0 0 -0 -0 0 0 0 0 0 0 0 0 0 0 0 0 0 0 0 0 0 0 0 0
0 0 0 0 0 0 0 0 0 0 0 0 0 0 0 0 0 0 -0 -0 -0 -0 0 -0 0 0 0 0 0 0 0 0 0 0 0 0 0 0 0 0 0 0 0 0
0 0 0 0 0 0 0 0 0 0 0 0 0 0 0 0 0 -0 -0 0 -0 -0 0 0 0 0 0 0 0 0 0 0 0 0 0 0 0 0 0 0 0 0 0 0
0 0 0 0 0 0 0 0 0 0 0 0 0 0 0 0 0 -0 0 0 -0 0 0 0 0 0 0 0 0 0 0 0 0 0 0 0 0 0 0 0 0 0 0 0
0 0 0 0 0 0 0 0 0 0 0 0 0 0 -0 -0 -0 -0 -0 0 0 0 0 0 0 0 0 0 0 0 0 0 0 0 0 0 0 0 0 0 0 0 0 0
0 0 0 0 0 0 0 0 0 0 0 0 0 0 0 0 0 0 0 0 0 0 0 0 0 0 0 0 0 0 0 0 0 0 0 0 0 0 0 0 0 0 0 0
0 0 0 0 0 0 0 0 0 0 -0 0 0 -0 -0 0 -0 0 0 0 0 0 0 0 0 0 0 0 0 0 0 0 0 0 0 0 0 0 0 0 0 0 0 0
0 0 0 0 0 0 0 0 0 0 -0 -0 -0 0 0 0 0 0 0 0 0 0 0 0 0 0 0 0 0 0 0 0 0 0 0 0 0 0 0 0 0 0 0 0
0 0 0 0 0 0 0 0 0 -0 -0 -0 0 0 0 0 0 0 0 0 0 0 0 0 0 0 0 0 0 0 0 0 0 0 0 0 0 0 0 0 0 0 0 0
0 0 0 0 0 0 -0 0 0 0 0 -0 -0 0 0 0 0 0 0 0 0 0 0 0 0 0 0 0 0 0 0 0 0 0 0 0 0 0 0 0 0 0 0 0
0 0 0 0 0 -0 -0 0 0 -0 0 0 -0 0 0 0 0 0 0 0 0 0 0 0 0 0 0 0 0 0 0 0 0 0 0 0 0 0 0 0 0 0 0 0
0 0 0 0 -0 -0 -0 0 -0 0 0 0 0 0 0 0 0 0 0 0 0 0 0 0 0 0 0 0 0 0 0 0 0 0 0 0 0 0 0 0 0 0 0 0
0 0 0 0 -0 0 -0 0 0 -0 0 0 0 0 0 0 0 0 0 0 0 0 0 0 0 0 0 0 0 0 0 0 0 0 0 0 0 0 0 0 0 0 0 0
0 0 0 -0 0 0 0 -0 -0 -0 0 0 0 0 0 0 0 0 0 0 -0 0 0 -0 0 0 0 0 0 0 0 0 0 0 0 0 0 0 0 0 0 0 0 0
0 0 0 0 0 0 0 0 -0 0 0 0 0 0 0 0 0 0 0 0 0 0 0 0 -0 0 0 -0 0 0 0 0 0 0 0 0 0 0 0 0 0 0 -0 0
Wind_Speed_500mb
32 34 29 32 24 19 21 31 22 24 29 22 23 21 12 16 21 15 22 23 28 37 32 25 23 26 26 28 30 33 33 31 29 31 30 31 23 22 22 23 25 26 23 21
34 34 34 23 21 18 19 21 27 19 13 20 25 18 17 18 19 29 25 31 32 27 24 25 25 28 30 31 29 30 32 35 37 35 35 28 24 22 22 24 26 26 24 18
31 33 26 19 14 11 18 22 22 18 11 27 19 16 12 24 29 24 29 30 27 18 23 27 29 32 29 32 34 34 36 36 37 36 32 25 25 20 24 27 28 22 22 24
19 23 21 12 16 18 13 11 10 20 15 17 22 33 22 21 24 29 27 20 20 25 28 30 31 30 33 33 34 33 34 33 30 28 25 24 25 28 27 27 26 23 28 29
6 11 4 6 10 10 10 8 10 18 21 27 33 21 24 21 23 19 17 20 24 27 31 29 30 35 35 33 35 32 28 29 28 25 28 30 28 28 27 30 28 27 25 24
14 10 6 6 5 3 18 5 20 23 25 31 32 16 29 28 19 16 18 22 27 29 29 34 32 36 32 31 35 30 27 26 26 27 27 35 30 30 32 27 23 18 13 17
5 7 11 5 14 11 9 7 16 21 26 24 21 17 19 16 14 17 21 26 29 30 29 27 31 31 30 32 34 29 25 22 28 31 28 25 28 27 30 21 14 14 18 24
9 6 4 13 5 11 6 6 15 19 19 19 15 14 12 13 18 22 25 29 29 30 30 29 26 30 33 33 33 32 29 29 28 30 30 25 24 28 27 26 29 26 26 23
8 7 7 12 16 11 9 14 15 15 15 13 12 12 13 18 19 24 28 27 31 30 30 31 34 31 31 28 26 26 24 21 26 24 26 25 26 28 28 29 30 24 24 20
6 4 9 10 12 13 14 14 13 12 12 11 13 12 17 16 22 25 26 26 30 34 29 29 30 30 32 32 28 24 23 22 25 29 31 36 31 34 31 31 31 28 27 29
12 10 10 9 12 11 13 13 12 13 11 13 12 14 12 20 25 23 23 27 28 33 33 30 30 28 30 29 30 29 32 31 26 26 33 43 46 43 41 41 37 36 39 38
3 12 13 14 12 10 9 10 9 9 12 12 12 10 13 19 21 21 21 26 24 33 33 32 31 31 31 30 29 27 31 32 32 35 36 34 41 46 45 43 39 36 34 33
12 12 18 20 15 11 10 9 9 11 14 12 10 11 16 19 19 19 23 24 26 28 28 36 38 40 35 28 26 29 33 31 31 30 26 28 26 30 29 33 35 35 36 36
20 22 18 14 15 12 11 12 14 15 14 11 9 12 14 16 17 18 22 25 26 31 29 24 21 23 23 31 30 29 31 33 32 27 26 24 26 31 37 42 54 61 54 49
9 7 16 18 18 14 11 12 13 16 13 10 9 15 13 15 17 19 18 21 31 40 38 38 35 27 30 34 32 33 37 34 34 37 37 39 44 50 54 57 66 76 84 78
15 15 17 15 14 11 8 10 13 18 12 9 12 13 12 13 15 17 19 18 24 36 36 40 44 42 33 31 34 26 30 32 36 41 46 46 48 52 60 52 45 41 38 34
18 14 10 9 8 7 6 9 16 18 11 8 11 11 10 10 14 15 16 19 28 37 34 33 40 35 28 36 34 33 34 42 47 52 53 52 47 40 45 41 43 49 50 51
10 7 5 6 7 10 10 16 21 16 11 7 6 9 8 9 12 12 13 11 17 21 27 33 36 31 29 36 23 26 39 53 53 48 45 43 44 32 32 40 39 41 41 42
15 12 9 10 12 13 18 22 22 16 10 4 4 10 8 8 11 12 10 9 13 17 29 32 33 30 35 34 28 36 36 30 32 36 36 34 29 32 38 38 39 38 36 35
18 16 14 15 15 19 24 26 21 14 10 8 9 9 9 10 12 12 9 14 12 20 25 28 32 31 39 37 29 23 22 27 29 28 23 28 37 35 38 36 33 33 32 33
18 16 15 15 19 25 28 25 19 14 10 7 9 8 8 11 12 14 15 13 10 16 21 24 18 24 27 24 26 24 22 24 24 18 32 39 30 28 28 30 31 32 33 33
18 16 15 19 24 29 28 23 17 13 10 7 9 8 9 12 14 11 8 12 8 19 15 9 10 20 27 28 23 23 22 19 26 32 27 24 25 24 26 28 29 28 28 30
17 17 18 22 26 30 27 21 16 11 8 5 6 10 9 12 14 13 14 12 9 14 10 9 16 19 22 19 15 18 18 19 18 17 17 19 20 22 23 24 24 25 27 28
19 19 20 23 28 29 27 21 14 9 3 2 7 13 12 15 14 10 17 20 20 15 12 9 18 18 11 6 12 10 11 15 15 15 15 17 17 18 19 20 22 23 25 26
19 20 22 25 30 28 24 19 12 7 5 8 14 16 14 12 10 13 11 13 14 15 5 4 12 18 11 8 8 10 9 10 11 10 12 14 15 15 17 19 20 21 22 24
19 17 19 24 28 28 25 20 14 12 10 14 17 14 12 12 12 12 13 11 11 13 12 5 7 6 8 10 10 10 10 14 12 13 13 13 14 15 17 18 18 19 20 21
16 19 18 23 25 26 24 20 19 13 15 15 14 14 12 11 8 10 11 9 14 13 12 11 9 10 8 10 9 10 12 12 19 13 12 13 14 15 16 16 16 17 18 20
Wind_Direction_500mb
296 305 298 285 289 314 314 305 310 347 29 19 24 67 28 347 346 7 6 9 355 336 344 348 346 345 336 339 341 335 333 330 330 319 319 314 317 320 328 338 344 344 338 332
293 280 272 293 311 313 295 338 341 4 55 326 44 32 354 353 338 18 7 343 340 347 349 345 341 343 341 343 338 334 333 329 328 319 316 318 318 326 330 336 337 345 338 332
287 296 299 297 358 313 34 27 25 12 336 26 25 346 339 6 3 6 340 350 357 352 341 348 343 335 341 343 339 335 331 333 327 328 335 330 322 339 345 346 343 329 325 321
291 296 286 89 40 16 8 29 38 260 351 16 356 346 49 31 357 354 357 3 351 351 346 336 337 340 345 344 343 337 333 335 338 344 355 349 336 342 344 337 328 329 327 330
286 311 81 84 51 30 19 91 251 7 352 1 353 310 73 16 9 10 8 359 352 347 340 337 342 347 346 341 341 340 340 343 346 358 355 355 354 350 338 338 327 326 333 353
307 286 336 60 93 332 305 97 351 0 4 359 336 335 34 10 29 12 5 355 348 341 340 343 345 343 342 346 344 352 354 357 3 1 352 343 347 339 334 337 340 340 19 22
289 275 83 41 12 315 350 35 19 4 11 4 4 10 355 6 20 11 3 351 349 346 358 354 352 348 349 351 356 356 354 6 2 353 354 337 345 357 357 1 21 37 55 53
341 318 344 345 335 4 55 61 10 18 9 8 15 18 33 37 20 11 2 356 352 357 359 352 348 351 351 353 351 352 356 354 358 354 360 21 28 19 30 51 60 61 46 44
19 16 73 46 74 76 53 48 34 20 16 22 43 62 47 35 20 11 5 3 4 1 356 350 355 357 1 355 356 1 4 355 0 30 44 32 27 35 46 63 65 48 43 33
271 107 111 102 91 85 78 70 44 37 40 57 81 64 51 28 21 12 17 16 11 6 12 17 17 18 16 22 25 27 23 35 45 59 47 36 52 55 59 60 63 53 57 60
72 56 119 131 104 104 85 67 53 49 68 93 79 59 41 33 21 24 21 23 26 24 27 28 25 27 22 33 31 41 51 61 45 56 62 59 64 71 67 65 61 63 65 64
16 21 14 132 127 119 84 57 52 73 99 94 71 52 37 45 26 25 29 33 25 16 27 36 35 29 29 31 33 52 63 51 61 68 71 63 64 63 61 59 56 56 57 64
98 71 89 120 122 112 96 68 78 105 120 99 62 41 43 53 36 37 42 41 32 25 29 36 39 39 36 38 55 65 57 58 71 73 65 64 49 51 51 52 57 57 61 65
116 114 114 140 134 123 103 91 108 123 120 93 63 45 51 59 41 48 56 36 45 44 31 30 29 28 32 50 71 59 59 66 70 76 75 62 69 72 79 75 72 65 65 69
127 83 117 132 133 128 114 115 120 135 123 89 57 43 63 59 51 65 70 55 50 43 47 54 53 60 69 58 58 65 67 60 70 79 82 82 82 83 81 80 74 77 80 82
140 124 125 134 139 140 131 142 141 146 125 98 62 56 80 77 67 74 81 73 49 52 62 53 50 58 64 58 55 62 67 76 80 84 88 88 90 87 75 72 68 60 56 68
158 160 148 145 147 160 150 155 151 150 134 109 68 72 93 91 86 90 88 71 59 38 45 48 48 50 61 77 64 58 74 85 84 84 88 91 88 71 70 69 73 70 69 73
156 157 171 169 174 167 152 150 151 146 143 127 57 86 104 88 98 99 99 96 64 37 54 52 43 53 68 81 68 58 91 90 69 64 77 80 70 70 64 73 72 72 70 70
140 137 134 142 156 160 156 151 149 144 137 88 82 109 107 104 117 116 112 115 79 57 59 47 50 56 90 86 84 89 87 59 52 60 66 67 70 67 73 71 69 66 66 65
134 132 133 135 146 152 151 151 148 144 133 104 112 113 115 118 123 131 130 116 102 81 61 55 54 74 100 92 89 73 78 79 71 74 85 87 79 70 67 68 64 63 62 62
138 134 135 139 146 150 151 151 147 142 134 100 136 128 130 132 128 135 135 132 128 84 58 51 59 74 84 80 91 91 86 73 75 82 105 84 61 65 64 64 64 65 64 63
141 139 141 149 151 152 154 153 149 151 131 96 135 147 140 143 144 142 157 158 158 100 82 86 84 80 88 74 75 77 77 73 96 106 95 69 62 64 66 65 65 67 65 64
142 143 148 155 158 159 157 158 160 148 143 122 141 161 155 153 150 150 154 157 155 109 103 123 111 89 81 83 84 85 94 92 87 74 74 66 64 69 69 70 72 70 63 61
141 141 149 159 161 163 165 167 167 175 167 206 174 167 160 157 156 137 166 180 164 136 152 145 133 119 110 71 114 97 90 98 96 86 79 76 74 74 73 76 76 71 64 63
143 147 152 164 169 171 171 170 178 167 163 161 160 152 146 148 174 168 164 176 188 143 182 157 143 131 97 158 141 138 122 111 116 96 89 88 86 83 89 89 83 75 67 62
147 150 162 170 175 176 176 175 197 174 143 141 152 152 152 145 158 149 164 179 176 171 168 195 143 96 148 155 154 150 138 112 103 117 104 105 103 99 94 86 79 71 65 60
156 158 164 171 183 185 183 182 190 173 168 159 158 164 167 169 188 184 198 202 194 194 185 213 198 170 185 164 165 152 152 156 135 126 115 113 109 108 100 92 83 74 66 62
Wind_Speed_850mb
32 34 29 32 24 19 21 31 22 24 29 22 23 21 12 16 21 15 22 23 28 37 32 25 23 26 26 28 30 33 33 31 29 31 30 31 23 22 22 23 25 26 23 21
34 34 34 23 21 18 19 21 27 19 13 20 25 18 17 18 19 29 25 31 32 27 24 25 25 28 30 31 29 30 32 35 37 35 35 28 24 22 22 24 26 26 24 18
31 33 26 19 14 11 18 22 22 18 11 27 19 16 12 24 29 24 29 30 27 18 23 27 29 32 29 32 34 34 36 36 37 36 32 25 25 20 24 27 28 22 22 24
19 23 21 12 16 18 13 11 10 20 15 17 22 33 22 21 24 29 27 20 20 25 28 30 31 30 33 33 34 33 34 33 30 28 25 24 25 28 27 27 26 23 28 29
6 11 4 6 10 10 10 8 10 18 21 27 33 21 24 21 23 19 17 20 24 27 31 29 30 35 35 33 35 32 28 29 28 25 28 30 28 28 27 30 28 27 25 24
14 10 6 6 5 3 18 5 20 23 25 31 32 16 29 28 19 16 18 22 27 29 29 34 32 36 32 31 35 30 27 26 26 27 27 35 30 30 32 27 23 18 13 17
5 7 11 5 14 11 9 7 16 21 26 24 21 17 19 16 14 17 21 26 29 30 29 27 31 31 30 32 34 29 25 22 28 31 28 25 28 27 30 21 14 14 18 24
9 6 4 13 5 11 6 6 15 19 19 19 15 14 12 13 18 22 25 29 29 30 30 29 26 30 33 33 33 32 29 29 28 30 30 25 24 28 27 26 29 26 26 23
8 7 7 12 16 11 9 14 15 15 15 13 12 12 13 18 19 24 28 27 31 30 30 31 34 31 31 28 26 26 24 21 26 24 26 25 26 28 28 29 30 24 24 20
6 4 9 10 12 13 14 14 13 12 12 11 13 12 17 16 22 25 26 26 30 34 29 29 30 30 32 32 28 24 23 22 25 29 31 36 31 34 31 31 31 28 27 29
12 10 10 9 12 11 13 13 12 13 11 13 12 14 12 20 25 23 23 27 28 33 33 30 30 28 30 29 30 29 32 31 26 26 33 43 46 43 41 41 37 36 39 38
3 12 13 14 12 10 9 10 9 9 12 12 12 10 13 19 21 21 21 26 24 33 33 32 31 31 31 30 29 27 31 32 32 35 36 34 41 46 45 43 39 36 34 33
12 12 18 20 15 11 10 9 9 11 14 12 10 11 16 19 19 19 23 24 26 28 28 36 38 40 35 28 26 29 33 31 31 30 26 28 26 30 29 33 35 35 36 36
20 22 18 14 15 12 11 12 14 15 14 11 9 12 14 16 17 18 22 25 26 31 29 24 21 23 23 31 30 29 31 33 32 27 26 24 26 31 37 42 54 61 54 49
9 7 16 18 18 14 11 12 13 16 13 10 9 15 13 15 17 19 18 21 31 40 38 38 35 27 30 34 32 33 37 34 34 37 37 39 44 50 54 57 66 76 84 78
15 15 17 15 14 11 8 10 13 18 12 9 12 13 12 13 15 17 19 18 24 36 36 40 44 42 33 31 34 26 30 32 36 41 46 46 48 52 60 52 45 41 38 34
18 14 10 9 8 7 6 9 16 18 11 8 11 11 10 10 14 15 16 19 28 37 34 33 40 35 28 36 34 33 34 42 47 52 53 52 47 40 45 41 43 49 50 51
10 7 5 6 7 10 10 16 21 16 11 7 6 9 8 9 12 12 13 11 17 21 27 33 36 31 29 36 23 26 39 53 53 48 45 43 44 32 32 40 39 41 41 42
15 12 9 10 12 13 18 22 22 16 10 4 4 10 8 8 11 12 10 9 13 17 29 32 33 30 35 34 28 36 36 30 32 36 36 34 29 32 38 38 39 38 36 35
18 16 14 15 15 19 24 26 21 14 10 8 9 9 9 10 12 12 9 14 12 20 25 28 32 31 39 37 29 23 22 27 29 28 23 28 37 35 38 36 33 33 32 33
18 16 15 15 19 25 28 25 19 14 10 7 9 8 8 11 12 14 15 13 10 16 21 24 18 24 27 24 26 24 22 24 24 18 32 39 30 28 28 30 31 32 33 33
18 16 15 19 24 29 28 23 17 13 10 7 9 8 9 12 14 11 8 12 8 19 15 9 10 20 27 28 23 23 22 19 26 32 27 24 25 24 26 28 29 28 28 30
17 17 18 22 26 30 27 21 16 11 8 5 6 10 9 12 14 13 14 12 9 14 10 9 16 19 22 19 15 18 18 19 18 17 17 19 20 22 23 24 24 25 27 28
19 19 20 23 28 29 27 21 14 9 3 2 7 13 12 15 14 10 17 20 20 15 12 9 18 18 11 6 12 10 11 15 15 15 15 17 17 18 19 20 22 23 25 26
19 20 22 25 30 28 24 19 12 7 5 8 14 16 14 12 10 13 11 13 14 15 5 4 12 18 11 8 8 10 9 10 11 10 12 14 15 15 17 19 20 21 22 24
19 17 19 24 28 28 25 20 14 12 10 14 17 14 12 12 12 12 13 11 11 13 12 5 7 6 8 10 10 10 10 14 12 13 13 13 14 15 17 18 18 19 20 21
16 19 18 23 25 26 24 20 19 13 15 15 14 14 12 11 8 10 11 9 14 13 12 11 9 10 8 10 9 10 12 12 19 13 12 13 14 15 16 16 16 17 18 20
Wind_Direction_850mb
296 305 298 285 289 314 314 305 310 347 29 19 24 67 28 347 346 7 6 9 355 336 344 348 346 345 336 339 341 335 333 330 330 319 319 314 317 320 328 338 344 344 338 332
293 280 272 293 311 313 295 338 341 4 55 326 44 32 354 353 338 18 7 343 340 347 349 345 341 343 341 343 338 334 333 329 328 319 316 318 318 326 330 336 337 345 338 332
287 296 299 297 358 313 34 27 25 12 336 26 25 346 339 6 3 6 340 350 357 352 341 348 343 335 341 343 339 335 331 333 327 328 335 330 322 339 345 346 343 329 325 321
291 296 286 89 40 16 8 29 38 260 351 16 356 346 49 31 357 354 357 3 351 351 346 336 337 340 345 344 343 337 333 335 338 344 355 349 336 342 344 337 328 329 327 330
286 311 81 84 51 30 19 91 251 7 352 1 353 310 73 16 9 10 8 359 352 347 340 337 342 347 346 341 341 340 340 343 346 358 355 355 354 350 338 338 327 326 333 353
307 286 336 60 93 332 305 97 351 0 4 359 336 335 34 10 29 12 5 355 348 341 340 343 345 343 342 346 344 352 354 357 3 1 352 343 347 339 334 337 340 340 19 22
289 275 83 41 12 315 350 35 19 4 11 4 4 10 355 6 20 11 3 351 349 346 358 354 352 348 349 351 356 356 354 6 2 353 354 337 345 357 357 1 21 37 55 53
341 318 344 345 335 4 55 61 10 18 9 8 15 18 33 37 20 11 2 356 352 357 359 352 348 351 351 353 351 352 356 354 358 354 360 21 28 19 30 51 60 61 46 44
19 16 73 46 74 76 53 48 34 20 16 22 43 62 47 35 20 11 5 3 4 1 356 350 355 357 1 355 356 1 4 355 0 30 44 32 27 35 46 63 65 48 43 33
271 107 111 102 91 85 78 70 44 37 40 57 81 64 51 28 21 12 17 16 11 6 12 17 17 18 16 22 25 27 23 35 45 59 47 36 52 55 59 60 63 53 57 60
72 56 119 131 104 104 85 67 53 49 68 93 79 59 41 33 21 24 21 23 26 24 27 28 25 27 22 33 31 41 51 61 45 56 62 59 64 71 67 65 61 63 65 64
16 21 14 132 127 119 84 57 52 73 99 94 71 52 37 45 26 25 29 33 25 16 27 36 35 29 29 31 33 52 63 51 61 68 71 63 64 63 61 59 56 56 57 64
98 71 89 120 122 112 96 68 78 105 120 99 62 41 43 53 36 37 42 41 32 25 29 36 39 39 36 38 55 65 57 58 71 73 65 64 49 51 51 52 57 57 61 65
116 114 114 140 134 123 103 91 108 123 120 93 63 45 51 59 41 48 56 36 45 44 31 30 29 28 32 50 71 59 59 66 70 76 75 62 69 72 79 75 72 65 65 69
127 83 117 132 133 128 114 115 120 135 123 89 57 43 63 59 51 65 70 55 50 43 47 54 53 60 69 58 58 65 67 60 70 79 82 82 82 83 81 80 74 77 80 82
140 124 125 134 139 140 131 142 141 146 125 98 62 56 80 77 67 74 81 73 49 52 62 53 50 58 64 58 55 62 67 76 80 84 88 88 90 87 75 72 68 60 56 68
158 160 148 145 147 160 150 155 151 150 134 109 68 72 93 91 86 90 88 71 59 38 45 48 48 50 61 77 64 58 74 85 84 84 88 91 88 71 70 69 73 70 69 73
156 157 171 169 174 167 152 150 151 146 143 127 57 86 104 88 98 99 99 96 64 37 54 52 43 53 68 81 68 58 91 90 69 64 77 80 70 70 64 73 72 72 70 70
140 137 134 142 156 160 156 151 149 144 137 88 82 109 107 104 117 116 112 115 79 57 59 47 50 56 90 86 84 89 87 59 52 60 66 67 70 67 73 71 69 66 66 65
134 132 133 135 146 152 151 151 148 144 133 104 112 113 115 118 123 131 130 116 102 81 61 55 54 74 100 92 89 73 78 79 71 74 85 87 79 70 67 68 64 63 62 62
138 134 135 139 146 150 151 151 147 142 134 100 136 128 130 132 128 135 135 132 128 84 58 51 59 74 84 80 91 91 86 73 75 82 105 84 61 65 64 64 64 65 64 63
141 139 141 149 151 152 154 153 149 151 131 96 135 147 140 143 144 142 157 158 158 100 82 86 84 80 88 74 75 77 77 73 96 106 95 69 62 64 66 65 65 67 65 64
142 143 148 155 158 159 157 158 160 148 143 122 141 161 155 153 150 150 154 157 155 109 103 123 111 89 81 83 84 85 94 92 87 74 74 66 64 69 69 70 72 70 63 61
141 141 149 159 161 163 165 167 167 175 167 206 174 167 160 157 156 137 166 180 164 136 152 145 133 119 110 71 114 97 90 98 96 86 79 76 74 74 73 76 76 71 64 63
143 147 152 164 169 171 171 170 178 167 163 161 160 152 146 148 174 168 164 176 188 143 182 157 143 131 97 158 141 138 122 111 116 96 89 88 86 83 89 89 83 75 67 62
147 150 162 170 175 176 176 175 197 174 143 141 152 152 152 145 158 149 164 179 176 171 168 195 143 96 148 155 154 150 138 112 103 117 104 105 103 99 94 86 79 71 65 60
156 158 164 171 183 185 183 182 190 173 168 159 158 164 167 169 188 184 198 202 194 194 185 213 198 170 185 164 165 152 152 156 135 126 115 113 109 108 100 92 83 74 66 62